Regional Weather Roundup
Issued by NWS

Current Version | Previous Version | Text Only | Print | Product List | Glossary On
Versions: 1 2 3 4 5 6 7 8 9 10 11 12 13 14 15 16 17 18 19 20 21 22 23 24 25 26 27 28 29 30 31 32 33 34 35 36 37 38 39 40 41 42 43 44 45 46 47 48 49 50
000
ASUS43 KFSD 271710
RWRSD

WEATHER ROUNDUP FOR SOUTH DAKOTA
NATIONAL WEATHER SERVICE SIOUX FALLS SD
1200 PM CDT MON APR 27 2015

NOTE: "FAIR" INDICATES FEW OR NO CLOUDS BELOW 12,000 FEET WITH NO
SIGNIFICANT WEATHER AND/OR OBSTRUCTIONS TO VISIBILITY.


SDZ001>005-009-010-012>017-271800-
NORTHWEST AND NORTH CENTRAL SOUTH DAKOTA

CITY           SKY/WX    TMP DP  RH WIND       PRES   REMARKS
BUFFALO          N/A     42  38  85 NW15      30.27R
FAITH            N/A     46  40  79 NW15      30.29R
MOBRIDGE       MOSUNNY   60  44  55 NW10      30.22F
$$

SDZ012>016-024>037-041>051-057-063-072>074-271800-
SOUTHWEST AND SOUTH CENTRAL SOUTH DAKOTA

CITY           SKY/WX    TMP DP  RH WIND       PRES   REMARKS
RAPID CTY ARPT CLOUDY    44  39  82 N20G29    30.30R
PIERRE           N/A    N/A N/A N/A MISG      30.22F
CUSTER         CLOUDY    42  38  85 VRB3      30.29R
ELLSWORTH AFB  CLOUDY    43  38  82 N24       30.30R
PHILIP         MOSUNNY   57  44  62 NW16G24   30.26S
PINE RIDGE     CLOUDY    52  43  71 N8        30.29R
SPEARFISH      LGT RAIN  37  37 100 NW8       30.35S
WINNER         FAIR      66  31  27 N9        30.23S
$$

SDZ004>011-016>023-039-040-271800-
NORTHEAST SOUTH DAKOTA

CITY           SKY/WX    TMP DP  RH WIND       PRES   REMARKS
ABERDEEN       SUNNY     66  22  18 VRB3      30.23F
WATERTOWN      NOT AVBL
SISSETON         N/A     65  18  16 E3        30.23F
$$

SDZ017-020-022-023-036>040-048>070-271800-
SOUTHEAST SOUTH DAKOTA

CITY           SKY/WX    TMP DP  RH WIND       PRES   REMARKS
SIOUX FALLS    MOSUNNY   63  28  26 NE5       30.22F
HURON          SUNNY     66  25  21 N6        30.23F
CHAMBERLAIN    SUNNY     63  32  30 W5        30.23F
MITCHELL       SUNNY     64  35  34 VRB6      30.23F
YANKTON        SUNNY     63  34  34 N5        30.21S
$$

ABBREVIATIONS USED IN REMARKS
   TC - TEMPERATURE IN CELSIUS
  WCI - WIND CHILL INDEX
   HX - HEAT INDEX
  VSB - VISIBILITY




USA.gov is the U.S. government's official web portal to all federal, state and local government web resources and services.